FW6992 Weather Reports


time (UTC)temp
C
wind
direction
speed
KPH
gust
KPH
rain 1hr
cm
rain 24hr
cm
rain mn
cm
humidity
%
barometer
mb
20260507220500 13 199 1.6 3.2 0.00 0.10 0.10 75 1011.2
20260507215956 13 295 3.2 4.8 0.00 0.10 0.10 73 1011.1
20260507215452 13 76 0.0 1.6 0.00 0.10 0.10 72 1011.3
20260507214950 13 179 0.0 1.6 0.00 0.10 0.10 72 1011.2
20260507214448 13 330 3.2 3.2 0.00 0.10 0.10 71 1011.3
20260507213943 13 112 1.6 4.8 0.00 0.10 0.10 70 1011.1
20260507213440 13 205 3.2 3.2 0.00 0.10 0.10 71 1011.3
20260507212937 13 256 0.0 6.4 0.00 0.10 0.10 69 1011.2
20260507212432 13 324 1.6 3.2 0.00 0.10 0.10 68 1011.0
20260507211930 13 163 0.0 3.2 0.00 0.10 0.10 68 1011.2
20260507211426 13 58 0.0 0.0 0.00 0.10 0.10 67 1011.2
20260507210923 14 106 3.2 4.8 0.00 0.10 0.10 66 1011.1
20260507210420 14 110 0.0 3.2 0.00 0.10 0.10 65 1010.8
20260507205917 13 196 0.0 3.2 0.00 0.10 0.10 67 1011.0
20260507205414 14 95 3.2 3.2 0.00 0.10 0.10 65 1011.2
20260507204910 14 173 0.0 1.6 0.00 0.10 0.10 68 1011.1
20260507204406 13 19 0.0 3.2 0.00 0.10 0.10 66 1011.0
20260507203904 14 157 3.2 6.4 0.00 0.10 0.10 64 1011.0
20260507203402 14 174 1.6 8.0 0.00 0.10 0.10 63 1011.4
20260507202858 15 124 0.0 3.2 0.00 0.10 0.10 67 1011.0
20260507202355 13 183 3.2 3.2 0.00 0.10 0.10 68 1011.3
20260507201850 13 187 3.2 4.8 0.00 0.10 0.10 69 1011.1
20260507201346 13 128 0.0 4.8 0.00 0.10 0.10 68 1011.4
20260507200842 13 152 4.8 6.4 0.00 0.10 0.10 65 1011.5
20260507200338 13 97 3.2 3.2 0.00 0.10 0.10 65 1011.5
20260507195835 13 114 3.2 6.4 0.00 0.10 0.10 64 1011.5
20260507195332 14 118 3.2 4.8 0.00 0.10 0.10 63 1011.6
20260507194829 13 150 0.0 4.8 0.00 0.10 0.10 66 1011.5
20260507194325 13 131 4.8 4.8 0.00 0.10 0.10 65 1011.7
20260507193822 13 122 0.0 4.8 0.00 0.10 0.10 64 1011.6
20260507193320 14 163 0.0 4.8 0.00 0.10 0.10 62 1011.6
20260507192815 15 76 1.6 6.4 0.00 0.10 0.10 63 1011.9
20260507192312 14 172 1.6 4.8 0.00 0.10 0.10 66 1011.7
20260507191808 13 144 1.6 6.4 0.00 0.10 0.10 64 1012.0
20260507191305 14 115 4.8 4.8 0.00 0.10 0.10 66 1012.1
20260507190802 13 110 0.0 3.2 0.00 0.10 0.10 67 1012.1
20260507190300 13 5 1.6 3.2 0.00 0.10 0.10 68 1011.6
20260507185758 13 113 3.2 4.8 0.00 0.10 0.10 69 1012.0
20260507185255 14 138 0.0 3.2 0.00 0.10 0.10 70 1012.1
20260507184752 13 194 1.6 3.2 0.00 0.10 0.10 69 1012.5
20260507184250 13 58 0.0 4.8 0.00 0.10 0.10 72 1012.5
20260507183747 13 134 0.0 3.2 0.00 0.10 0.10 73 1012.4
20260507183243 12 82 3.2 4.8 0.00 0.10 0.10 69 1012.3
20260507182741 12 151 0.0 1.6 0.00 0.10 0.10 70 1012.1
20260507182236 13 205 0.0 4.8 0.00 0.10 0.10 71 1012.4
20260507181733 12 168 0.0 4.8 0.00 0.10 0.10 72 1012.4
20260507181229 12 167 1.6 1.6 0.00 0.10 0.10 74 1012.5
20260507180726 12 100 0.0 4.8 0.00 0.10 0.10 73 1012.4
20260507180223 12 174 0.0 3.2 0.00 0.10 0.10 75 1012.3
20260507175718 12 175 0.0 1.6 0.00 0.10 0.10 74 1012.6
20260507175215 13 67 1.6 3.2 0.00 0.10 0.10 74 1012.5
20260507174713 13 76 0.0 1.6 0.00 0.10 0.10 74 1012.4
20260507174211 13 192 0.0 3.2 0.05 0.10 0.10 78 1012.2
20260507173708 12 172 0.0 3.2 0.05 0.10 0.10 77 1012.5
20260507173205 12 151 0.0 3.2 0.00 0.10 0.10 75 1012.5
20260507172702 12 115 3.2 3.2 0.00 0.10 0.10 74 1012.6
20260507172159 13 187 1.6 1.6 0.00 0.10 0.10 74 1013.0
20260507171658 12 65 0.0 1.6 0.00 0.10 0.10 73 1012.6
20260507171156 12 171 0.0 1.6 0.00 0.10 0.10 74 1012.6
20260507170653 12 145 0.0 3.2 0.00 0.10 0.10 74 1012.8
20260507170150 12 156 0.0 0.0 0.00 0.10 0.10 77 1013.0
20260507165645 12 129 1.6 3.2 0.00 0.10 0.10 77 1012.9
20260507165142 12 347 0.0 1.6 0.00 0.10 0.10 78 1013.1
20260507164638 12 131 0.0 3.2 0.00 0.10 0.10 76 1013.2
20260507164135 12 277 1.6 3.2 0.00 0.10 0.10 75 1013.2
20260507163632 12 126 3.2 4.8 0.00 0.10 0.10 76 1013.2
20260507163130 12 258 0.0 3.2 0.00 0.10 0.10 78 1013.3
20260507162626 12 236 0.0 3.2 0.00 0.10 0.10 81 1013.2
20260507162122 12 192 1.6 3.2 0.00 0.10 0.10 82 1013.4
20260507161618 12 157 1.6 4.8 0.00 0.10 0.10 82 1013.5
20260507161115 12 128 0.0 3.2 0.05 0.10 0.10 82 1013.6
20260507160612 12 189 0.0 3.2 0.05 0.10 0.10 82 1013.5
20260507160108 12 230 0.0 1.6 0.00 0.10 0.10 82 1013.8
20260507155603 11 145 0.0 1.6 0.18 0.10 0.10 82 1013.9
20260507155101 11 208 1.6 3.2 0.18 0.10 0.10 82 1013.6
20260507154557 11 90 0.0 3.2 0.00 0.05 0.05 82 1013.7
20260507154055 12 134 0.0 1.6 0.00 0.05 0.05 83 1013.9
20260507153551 12 178 0.0 1.6 0.00 0.05 0.05 81 1013.9
20260507153048 12 40 0.0 1.6 0.00 0.05 0.05 81 1014.1
20260507152543 11 294 3.2 6.4 0.00 0.05 0.05 81 1013.9
20260507152040 12 168 0.0 3.2 0.00 0.05 0.05 83 1014.0
20260507151536 12 192 0.0 4.8 0.00 0.05 0.05 83 1013.6
20260507151033 12 256 0.0 3.2 0.00 0.05 0.05 83 1013.5
20260507150530 12 125 0.0 1.6 0.00 0.05 0.05 84 1013.4
20260507150027 12 149 0.0 1.6 0.00 0.05 0.05 83 1013.6
20260507145522 12 210 3.2 3.2 0.00 0.05 0.05 83 1013.4
20260507145020 12 277 0.0 1.6 0.00 0.05 0.05 83 1013.5
20260507144516 12 273 0.0 3.2 0.00 0.05 0.05 82 1013.6
20260507144014 12 121 1.6 3.2 0.00 0.05 0.05 82 1013.9
20260507143511 12 134 0.0 1.6 0.00 0.05 0.05 82 1013.9
20260507143008 12 129 1.6 1.6 0.05 0.05 0.05 82 1013.9
20260507142503 12 151 0.0 3.2 0.05 0.05 0.05 81 1014.0
20260507142001 12 290 0.0 6.4 0.00 0.05 0.05 81 1014.3
20260507141456 12 84 0.0 3.2 0.00 0.05 0.05 80 1014.1
20260507140953 12 349 1.6 3.2 0.00 0.05 0.05 80 1014.0
20260507140450 12 126 0.0 4.8 0.00 0.05 0.05 79 1014.2
20260507135948 12 320 1.6 3.2 0.00 0.05 0.05 78 1014.2
20260507135444 12 43 0.0 3.2 0.00 0.05 0.05 78 1014.0
20260507134942 12 6 0.0 3.2 0.00 0.05 0.05 78 1014.1
20260507134438 12 121 0.0 3.2 0.00 0.05 0.05 78 1013.9
20260507133934 12 110 0.0 3.2 0.00 0.05 0.05 78 1014.2
20260507133430 12 116 1.6 3.2 0.00 0.05 0.05 77 1014.0
20260507132929 12 347 3.2 3.2 0.00 0.05 0.05 77 1014.3
20260507132425 12 190 0.0 4.8 0.00 0.05 0.05 77 1014.2
20260507131921 12 282 4.8 4.8 0.00 0.05 0.05 77 1014.2
20260507131418 12 151 3.2 4.8 0.00 0.05 0.05 77 1014.1
20260507130915 12 121 0.0 1.6 0.00 0.05 0.05 78 1014.1
20260507130412 12 324 0.0 4.8 0.00 0.05 0.05 77 1014.0
20260507125911 12 7 0.0 3.2 0.00 0.05 0.05 78 1013.6
20260507125409 12 355 1.6 4.8 0.00 0.05 0.05 78 1014.1
20260507124906 12 81 0.0 3.2 0.00 0.05 0.05 78 1013.9
20260507124401 12 86 1.6 3.2 0.00 0.05 0.05 78 1013.8
20260507123900 12 168 0.0 3.2 0.00 0.05 0.05 79 1013.8
20260507123357 12 325 1.6 3.2 0.00 0.05 0.05 79 1013.6
20260507122853 12 84 0.0 3.2 0.00 0.05 0.05 79 1013.7
20260507122349 12 170 1.6 3.2 0.00 0.05 0.05 80 1013.9
20260507121845 12 187 1.6 1.6 0.00 0.05 0.05 80 1013.8
20260507121341 12 35 0.0 1.6 0.00 0.05 0.05 80 1013.9
20260507120838 12 110 3.2 4.8 0.00 0.05 0.05 80 1013.7
20260507120334 12 134 3.2 4.8 0.00 0.05 0.05 80 1013.5
20260507115831 12 89 0.0 3.2 0.00 0.05 0.05 81 1013.8
20260507115326 12 354 0.0 3.2 0.00 0.05 0.05 81 1013.8
20260507114822 12 135 3.2 3.2 0.00 0.05 0.05 81 1013.6
20260507114320 12 178 0.0 0.0 0.00 0.05 0.05 81 1013.5
20260507113817 12 76 0.0 0.0 0.00 0.05 0.05 81 1013.2
20260507113314 12 85 3.2 3.2 0.00 0.05 0.05 81 1013.3
20260507112811 12 85 0.0 3.2 0.00 0.05 0.05 81 1013.4
20260507112308 12 327 0.0 3.2 0.00 0.05 0.05 82 1013.4
20260507111806 12 48 1.6 3.2 0.00 0.05 0.05 82 1013.3
20260507111302 12 338 0.0 1.6 0.00 0.05 0.05 82 1013.3
20260507110758 12 97 0.0 3.2 0.00 0.05 0.05 82 1013.0
20260507110255 12 328 0.0 4.8 0.00 0.05 0.05 82 1013.1
20260507105752 12 75 3.2 3.2 0.00 0.05 0.05 83 1012.8
20260507105248 12 313 4.8 6.4 0.00 0.05 0.05 83 1012.7
20260507104745 12 89 0.0 3.2 0.00 0.05 0.05 83 1012.8
20260507104242 12 16 1.6 4.8 0.00 0.05 0.05 84 1012.8
20260507103738 12 98 3.2 3.2 0.00 0.05 0.05 84 1012.6
20260507103234 12 123 1.6 1.6 0.00 0.05 0.05 84 1012.7
20260507102730 12 225 0.0 4.8 0.00 0.05 0.05 84 1012.9
20260507102227 12 305 0.0 4.8 0.00 0.05 0.05 84 1012.8
20260507101723 12 228 0.0 4.8 0.00 0.05 0.05 84 1013.0
20260507101219 12 103 1.6 3.2 0.00 0.05 0.05 84 1012.7
20260507100716 12 241 0.0 3.2 0.00 0.05 0.05 85 1012.7
20260507100215 12 234 0.0 1.6 0.00 0.05 0.05 85 1012.9
20260507095712 12 342 0.0 3.2 0.00 0.05 0.05 85 1013.2
20260507095208 12 233 3.2 4.8 0.00 0.05 0.05 85 1012.8
20260507094705 12 240 0.0 3.2 0.00 0.05 0.05 85 1012.6
20260507094202 12 193 0.0 1.6 0.00 0.05 0.05 86 1012.3
20260507093659 12 80 6.4 6.4 0.00 0.05 0.05 86 1012.3
20260507093158 12 195 0.0 6.4 0.00 0.05 0.05 86 1012.3
20260507092654 12 147 1.6 3.2 0.00 0.05 0.05 87 1012.3
20260507092151 12 121 0.0 1.6 0.00 0.05 0.05 87 1012.7
20260507091647 12 290 0.0 4.8 0.00 0.05 0.05 87 1012.7
20260507091144 12 2 3.2 4.8 0.00 0.05 0.05 88 1012.7
20260507090639 12 123 0.0 3.2 0.00 0.05 0.05 88 1012.8
20260507090137 12 74 1.6 3.2 0.00 0.05 0.05 89 1012.8
20260507085634 12 76 1.6 3.2 0.00 0.05 0.05 89 1012.4
20260507085130 12 277 0.0 3.2 0.00 0.05 0.05 89 1012.3
20260507084627 12 149 4.8 4.8 0.00 0.05 0.05 89 1012.4
20260507084124 13 286 3.2 4.8 0.00 0.05 0.05 89 1012.3
20260507083621 13 99 4.8 6.4 0.00 0.05 0.05 90 1012.2
20260507083118 13 169 0.0 6.4 0.00 0.05 0.05 90 1012.3
20260507082613 13 256 0.0 0.0 0.00 0.05 0.05 90 1012.2
20260507082110 13 164 3.2 3.2 0.00 0.05 0.05 90 1012.0
20260507081607 13 245 0.0 0.0 0.00 0.05 0.05 90 1011.9
20260507081103 13 325 0.0 1.6 0.00 0.05 0.05 90 1011.8
20260507080559 13 320 0.0 3.2 0.00 0.05 0.05 91 1012.0
20260507080056 13 50 0.0 3.2 0.00 0.05 0.05 91 1012.1
20260507075551 13 208 0.0 4.8 0.00 0.05 0.05 91 1011.9
20260507075048 13 106 4.8 4.8 0.00 0.05 0.05 91 1012.0
20260507074544 13 138 1.6 3.2 0.00 0.05 0.05 91 1012.0
20260507074043 13 300 3.2 3.2 0.00 0.05 0.05 91 1012.2
20260507073539 13 110 0.0 4.8 0.00 0.05 0.05 91 1012.1
20260507073035 13 281 0.0 4.8 0.00 0.05 0.05 91 1011.5
20260507072533 13 65 0.0 1.6 0.00 0.05 0.05 92 1011.6
20260507072030 14 62 0.0 3.2 0.00 0.05 0.05 92 1011.3
20260507071527 14 281 3.2 6.4 0.00 0.05 0.05 92 1011.3
20260507071024 14 92 3.2 6.4 0.00 0.05 0.05 92 1011.3
20260507070521 15 47 1.6 1.6 0.00 0.05 0.05 92 1011.3
20260507070018 15 71 0.0 1.6 0.00 0.05 0.05 92 1011.1
20260507065514 15 309 3.2 4.8 0.00 0.05 0.05 92 1010.7
20260507065012 15 315 4.8 6.4 0.00 0.05 0.05 92 1011.0
20260507064509 15 128 6.4 8.0 0.00 0.05 0.05 92 1010.9
20260507064008 16 64 0.0 3.2 0.00 0.05 0.05 92 1011.2
20260507063504 16 118 3.2 3.2 0.00 0.05 0.05 92 1011.3
20260507063002 17 65 4.8 6.4 0.00 0.05 0.05 92 1011.4
20260507062458 17 53 1.6 1.6 0.00 0.05 0.05 92 1011.6
20260507061955 17 134 0.0 1.6 0.00 0.05 0.05 92 1011.6
20260507061453 17 58 0.0 3.2 0.00 0.05 0.05 92 1011.4
20260507060952 17 110 0.0 3.2 0.00 0.05 0.05 92 1011.4
20260507060448 17 314 0.0 1.6 0.00 0.05 0.05 92 1011.3
20260507055945 17 14 0.0 3.2 0.00 0.05 0.05 92 1011.2
20260507055440 17 336 0.0 0.0 0.00 0.05 0.05 92 1011.5
20260507054937 17 336 0.0 1.6 0.00 0.05 0.05 92 1011.2
20260507054433 17 317 0.0 1.6 0.00 0.05 0.05 92 1011.2
20260507053931 17 58 0.0 1.6 0.00 0.05 0.05 92 1011.1
20260507053428 17 320 0.0 3.2 0.00 0.05 0.05 91 1011.2
20260507052926 17 318 1.6 3.2 0.00 0.05 0.05 91 1010.8
20260507052423 17 319 0.0 1.6 0.00 0.05 0.05 91 1010.4
20260507051920 17 110 0.0 0.0 0.00 0.05 0.05 91 1009.9
20260507051418 17 110 0.0 0.0 0.00 0.05 0.05 91 1009.9
20260507050915 17 21 0.0 0.0 0.05 0.05 0.05 91 1010.0
20260507050411 17 21 0.0 0.0 0.05 0.05 0.05 90 1010.1
20260507045908 17 110 0.0 0.0 0.00 0.05 0.05 90 1010.1
20260507045405 17 106 0.0 1.6 0.05 0.05 0.05 90 1010.4
20260507044902 17 64 0.0 1.6 0.00 0.03 0.03 90 1010.5
20260507044359 17 325 0.0 3.2 0.05 0.03 0.03 90 1011.0
20260507043855 17 58 0.0 1.6 0.13 0.03 0.03 90 1011.2
20260507043351 17 58 0.0 0.0 0.05 0.03 0.03 89 1011.1
20260507042848 17 134 0.0 0.0 0.00 0.00 0.00 89 1011.4
20260507042344 17 325 0.0 0.0 0.05 0.00 0.00 89 1011.3
20260507041840 18 233 0.0 0.0 0.05 0.00 0.00 88 1011.2
20260507041337 18 58 0.0 0.0 0.00 0.00 0.00 88 1010.5
20260507040834 18 336 0.0 0.0 0.05 0.00 0.00 88 1010.8
20260507040331 18 336 0.0 1.6 0.05 0.00 0.00 87 1010.8
20260507035826 18 110 0.0 0.0 0.00 0.15 0.15 86 1010.5
20260507035322 18 81 0.0 1.6 0.05 0.15 0.15 86 1010.8
20260507034820 18 330 0.0 0.0 0.05 0.15 0.15 85 1011.0
20260507034316 18 330 0.0 0.0 0.00 0.15 0.15 85 1011.5
20260507033815 18 321 1.6 1.6 0.00 0.15 0.15 84 1011.5
20260507033312 18 336 0.0 1.6 0.00 0.15 0.15 83 1011.2
20260507032809 18 329 1.6 1.6 0.00 0.15 0.15 83 1011.4
20260507032306 18 52 0.0 3.2 0.00 0.15 0.15 83 1011.4
20260507031801 18 334 1.6 3.2 0.00 0.15 0.15 83 1011.1
20260507031258 18 314 3.2 3.2 0.00 0.15 0.15 83 1010.7
20260507030755 18 346 0.0 3.2 0.00 0.15 0.15 83 1010.8
20260507030253 18 68 0.0 0.0 0.00 0.15 0.15 83 1010.9
20260507025750 18 14 0.0 1.6 0.00 0.15 0.15 83 1010.7
20260507025247 18 81 0.0 4.8 0.00 0.15 0.15 83 1010.8
20260507024745 18 330 0.0 3.2 0.00 0.15 0.15 83 1010.9
20260507024242 18 58 0.0 0.0 0.00 0.15 0.15 82 1011.2
20260507023737 18 148 0.0 0.0 0.00 0.15 0.15 82 1011.1
20260507023234 19 326 0.0 3.2 0.00 0.15 0.15 81 1011.4
20260507022732 19 331 0.0 3.2 0.00 0.15 0.15 81 1011.2
20260507022227 19 282 0.0 4.8 0.00 0.15 0.15 81 1011.0
20260507021724 19 323 3.2 3.2 0.00 0.15 0.15 81 1010.9
20260507021219 19 307 3.2 3.2 0.00 0.15 0.15 81 1010.5
20260507020718 18 286 1.6 4.8 0.00 0.15 0.15 82 1010.2
20260507020214 18 267 0.0 3.2 0.00 0.15 0.15 82 1009.9
20260507015712 18 76 0.0 3.2 0.00 0.15 0.15 83 1009.9
20260507015209 18 206 1.6 3.2 0.00 0.15 0.15 83 1010.0
20260507014705 18 343 0.0 0.0 0.00 0.15 0.15 83 1010.2
20260507014201 18 221 0.0 1.6 0.00 0.15 0.15 83 1010.2
20260507013659 18 249 0.0 1.6 0.00 0.15 0.15 83 1010.5
20260507013156 18 331 0.0 1.6 0.00 0.15 0.15 83 1010.7
20260507012654 18 58 0.0 1.6 0.00 0.15 0.15 82 1010.2
20260507012148 18 235 0.0 1.6 0.00 0.15 0.15 82 1010.2
20260507011647 18 326 3.2 3.2 0.00 0.15 0.15 82 1010.4
20260507011143 18 305 1.6 1.6 0.00 0.15 0.15 82 1010.8
20260507010637 18 213 1.6 1.6 0.00 0.15 0.15 81 1011.0
20260507010134 18 336 0.0 1.6 0.00 0.15 0.15 81 1011.0
20260507005631 18 238 0.0 1.6 0.00 0.15 0.15 80 1011.0
20260507005127 19 239 0.0 1.6 0.00 0.15 0.15 80 1010.7
20260507004624 19 320 0.0 3.2 0.00 0.15 0.15 80 1010.8
20260507004122 19 321 3.2 4.8 0.00 0.15 0.15 80 1010.9
20260507003618 19 27 0.0 3.2 0.00 0.15 0.15 80 1010.4
20260507003113 19 343 0.0 0.0 0.00 0.15 0.15 79 1010.4
20260507002610 19 284 1.6 6.4 0.00 0.15 0.15 79 1010.5
20260507002105 19 207 0.0 1.6 0.00 0.15 0.15 79 1010.5
20260507001602 19 253 0.0 3.2 0.00 0.15 0.15 78 1010.4
20260507001100 20 319 4.8 6.4 0.00 0.15 0.15 78 1010.7
20260507000556 20 308 0.0 1.6 0.00 0.15 0.15 78 1010.7
20260507000051 20 275 0.0 3.2 0.00 0.15 0.15 77 1010.7
20260506235549 20 226 1.6 3.2 0.00 0.15 0.15 78 1010.3
20260506235044 20 265 3.2 4.8 0.00 0.15 0.15 77 1010.0
20260506234542 20 180 3.2 3.2 0.00 0.15 0.15 77 1010.1
20260506234039 20 294 4.8 4.8 0.00 0.15 0.15 77 1010.2
20260506233536 20 343 0.0 1.6 0.00 0.15 0.15 77 1010.4
20260506233032 20 199 0.0 3.2 0.00 0.15 0.15 76 1010.3
20260506232529 20 70 0.0 3.2 0.00 0.15 0.15 76 1010.7
20260506232019 20 350 1.6 3.2 0.00 0.15 0.15 76 1010.7
20260506231517 20 196 0.0 3.2 0.00 0.15 0.15 76 1010.7
20260506231014 20 331 1.6 3.2 0.00 0.15 0.15 75 1010.7
20260506230509 20 120 0.0 3.2 0.00 0.15 0.15 75 1010.3
20260506230008 20 328 3.2 3.2 0.00 0.15 0.15 74 1009.9
20260506225504 20 230 1.6 6.4 0.00 0.15 0.15 75 1009.8
20260506225000 20 145 0.0 0.0 0.00 0.15 0.15 75 1010.1
20260506224457 21 311 3.2 3.2 0.00 0.15 0.15 74 1009.7
20260506223954 21 277 3.2 6.4 0.00 0.15 0.15 74 1009.7
20260506223450 21 151 0.0 1.6 0.00 0.15 0.15 74 1010.0
20260506222947 21 317 1.6 3.2 0.00 0.15 0.15 74 1010.1
20260506222444 21 277 0.0 3.2 0.00 0.15 0.15 74 1009.7
20260506221940 21 328 0.0 3.2 0.00 0.15 0.15 74 1009.9
20260506221437 21 228 1.6 4.8 0.00 0.15 0.15 74 1009.9